Weather in Divinopolis

Brazil     20°08′20″S   44°53′13″W
temp.,
°C
wind,
m/s
gust,
m/s
humid.,
%
clouds,
%
prec.,
mm/h
press.,
hPa
HPBL,
m
14 april, wed
wed1400:00+18se388292 0.0 1017421
03:00+18se3875100 0.0 1016451
06:00+18se3775100 0.0 1017415
09:00+19se477131 0.0 1019489
12:00+24ese43581 0.0 10171039
15:00+25ese22551 0.0 10151252
18:00+20e11720 0.0 101511
21:00+17ese39830 0.0 1018248
15 april, thu
thu1500:00+15sse24900 0.0 101864
03:00+13sse24930 0.0 101784
06:00+12sse23950 0.0 101853
09:00+19ese33680 0.0 1019450
12:00+24ese22520 0.0 10171151
15:00+25sse22450 0.0 10141565
18:00+19se22610 0.0 101511
21:00+15se37830 0.0 1018149
16 april, fri
fri1600:00+14sse23912 0.0 101846
03:00+13s22934 0.0 101721
06:00+12s11924 0.0 101810
09:00+19ese23685 0.0 1019418
12:00+24ene22515 0.0 10161387
15:00+25e22455 0.0 10141805
18:00+19se22660 0.0 101513
21:00+16ese23750 0.0 101644
17 april, sat
sat1700:00+14sse118672 0.0 101711
03:00+13se119038 0.0 101610
06:00+13se119018 0.0 101710
09:00+20ne23634 0.0 1018458
12:00+25ne12455 0.0 10151296
15:00+26ese113923 0.0 10121748
18:00+20se115940 0.0 101311
21:00+17ssw11647 0.0 101511
18 april, sun
sun1800:00+15ese117158 0.0 101511
03:00+15ene117136 0.0 101411
06:00+14ssw00795 0.0 101611
09:00+21ne11645 0.0 1016343
12:00+26nnw124847 0.0 10141246
15:00+27nw0245100 0.0 10111971
18:00+22sse1165100 0.0 101211
21:00+18wsw1185100 1.8 101411